Year,Month,Day,Hour,Minute,Value (Times are PST for temperature in C)
2013,10,29,00,00,3.20
2013,10,29,00,01,3.20
2013,10,29,00,02,3.20
2013,10,29,00,03,3.20
2013,10,29,00,04,3.20
2013,10,29,00,05,3.20
2013,10,29,00,06,3.20
2013,10,29,00,07,3.20
2013,10,29,00,08,3.20
2013,10,29,00,09,3.20
2013,10,29,00,10,3.20
2013,10,29,00,11,3.20
2013,10,29,00,12,3.20
2013,10,29,00,13,3.20
2013,10,29,00,14,3.20
2013,10,29,00,15,3.20
2013,10,29,00,16,3.20
2013,10,29,00,17,3.20
2013,10,29,00,18,3.20
2013,10,29,00,19,3.20
2013,10,29,00,20,3.20
2013,10,29,00,21,3.20
2013,10,29,00,22,3.20
2013,10,29,00,23,3.20
2013,10,29,00,24,3.20
2013,10,29,00,25,3.30
2013,10,29,00,26,3.30
2013,10,29,00,27,3.30
2013,10,29,00,28,3.30
2013,10,29,00,29,3.30
2013,10,29,00,30,3.20
2013,10,29,00,31,3.20
2013,10,29,00,32,3.20
2013,10,29,00,33,3.20
2013,10,29,00,34,3.20
2013,10,29,00,35,3.20
2013,10,29,00,36,3.10
2013,10,29,00,37,3.10
2013,10,29,00,38,3.10
2013,10,29,00,39,3.00
2013,10,29,00,40,3.00
2013,10,29,00,41,2.90
2013,10,29,00,42,2.90
2013,10,29,00,43,2.90
2013,10,29,00,44,2.90
2013,10,29,00,45,2.90
2013,10,29,00,46,2.90
2013,10,29,00,47,2.90
2013,10,29,00,48,2.80
2013,10,29,00,49,2.80
2013,10,29,00,50,2.80
2013,10,29,00,51,2.80
2013,10,29,00,52,2.80
2013,10,29,00,53,2.80
2013,10,29,00,54,2.80
2013,10,29,00,55,2.80
2013,10,29,00,56,2.90
2013,10,29,00,57,2.90
2013,10,29,00,58,2.90
2013,10,29,00,59,2.90
2013,10,29,01,00,3.00
2013,10,29,01,01,3.00
2013,10,29,01,02,3.00
2013,10,29,01,03,3.00
2013,10,29,01,04,2.90
2013,10,29,01,05,2.90
2013,10,29,01,06,2.90
2013,10,29,01,07,2.80
2013,10,29,01,08,2.80
2013,10,29,01,09,2.80
2013,10,29,01,10,2.80
2013,10,29,01,11,2.80
2013,10,29,01,12,2.70
2013,10,29,01,13,2.70
2013,10,29,01,14,2.70
2013,10,29,01,15,2.60
2013,10,29,01,16,2.60
2013,10,29,01,17,2.60
2013,10,29,01,18,2.50
2013,10,29,01,19,2.50
2013,10,29,01,20,2.40
2013,10,29,01,21,2.40
2013,10,29,01,22,2.40
2013,10,29,01,23,2.40
2013,10,29,01,24,2.30
2013,10,29,01,25,2.30
2013,10,29,01,26,2.30
2013,10,29,01,27,2.30
2013,10,29,01,28,2.30
2013,10,29,01,29,2.20
2013,10,29,01,30,2.20
2013,10,29,01,31,2.20
2013,10,29,01,32,2.20
2013,10,29,01,33,2.20
2013,10,29,01,34,2.20
2013,10,29,01,35,2.20
2013,10,29,01,36,2.20
2013,10,29,01,37,2.20
2013,10,29,01,38,2.20
2013,10,29,01,39,2.10
2013,10,29,01,40,2.10
2013,10,29,01,41,2.20
2013,10,29,01,42,2.20
2013,10,29,01,43,2.20
2013,10,29,01,44,2.20
2013,10,29,01,45,2.20
2013,10,29,01,46,2.20
2013,10,29,01,47,2.20
2013,10,29,01,48,2.10
2013,10,29,01,49,2.10
2013,10,29,01,50,2.10
2013,10,29,01,51,2.10
2013,10,29,01,52,2.10
2013,10,29,01,53,2.00
2013,10,29,01,54,2.00
2013,10,29,01,55,2.00
2013,10,29,01,56,1.90
2013,10,29,01,57,1.90
2013,10,29,01,58,1.90
2013,10,29,01,59,1.80
2013,10,29,02,00,1.80
2013,10,29,02,01,1.80
2013,10,29,02,02,1.80
2013,10,29,02,03,1.80
2013,10,29,02,04,1.80
2013,10,29,02,05,1.70
2013,10,29,02,06,1.70
2013,10,29,02,07,1.70
2013,10,29,02,08,1.70
2013,10,29,02,09,1.70
2013,10,29,02,10,1.70
2013,10,29,02,11,1.70
2013,10,29,02,12,1.70
2013,10,29,02,13,1.70
2013,10,29,02,14,1.70
2013,10,29,02,15,1.70
2013,10,29,02,16,1.70
2013,10,29,02,17,1.70
2013,10,29,02,18,1.70
2013,10,29,02,19,1.70
2013,10,29,02,20,1.70
2013,10,29,02,21,1.70
2013,10,29,02,22,1.60
2013,10,29,02,23,1.60
2013,10,29,02,24,1.60
2013,10,29,02,25,1.60
2013,10,29,02,26,1.60
2013,10,29,02,27,1.50
2013,10,29,02,28,1.50
2013,10,29,02,29,1.50
2013,10,29,02,30,1.50
2013,10,29,02,31,1.40
2013,10,29,02,32,1.40
2013,10,29,02,33,1.40
2013,10,29,02,34,1.40
2013,10,29,02,35,1.40
2013,10,29,02,36,1.40
2013,10,29,02,37,1.50
2013,10,29,02,38,1.40
2013,10,29,02,39,1.40
2013,10,29,02,40,1.40
2013,10,29,02,41,1.40
2013,10,29,02,42,1.40
2013,10,29,02,43,1.40
2013,10,29,02,44,1.40
2013,10,29,02,45,1.40
2013,10,29,02,46,1.40
2013,10,29,02,47,1.40
2013,10,29,02,48,1.40
2013,10,29,02,49,1.40
2013,10,29,02,50,1.40
2013,10,29,02,51,1.40
2013,10,29,02,52,1.40
2013,10,29,02,53,1.30
2013,10,29,02,54,1.30
2013,10,29,02,55,1.30
2013,10,29,02,56,1.30
2013,10,29,02,57,1.30
2013,10,29,02,58,1.30
2013,10,29,02,59,1.30
2013,10,29,03,00,1.30
2013,10,29,03,01,1.30
2013,10,29,03,02,1.30
2013,10,29,03,06,1.30
2013,10,29,03,07,1.30
2013,10,29,03,08,1.30
2013,10,29,03,09,1.30
2013,10,29,03,10,1.40
2013,10,29,03,11,1.40
2013,10,29,03,12,1.40
2013,10,29,03,13,1.40
2013,10,29,03,14,1.40
2013,10,29,03,15,1.40
2013,10,29,03,16,1.40
2013,10,29,03,17,1.40
2013,10,29,03,18,1.40
2013,10,29,03,19,1.40
2013,10,29,03,20,1.40
2013,10,29,03,21,1.40
2013,10,29,03,22,1.40
2013,10,29,03,23,1.30
2013,10,29,03,24,1.30
2013,10,29,03,25,1.30
2013,10,29,03,26,1.30
2013,10,29,03,27,1.30
2013,10,29,03,28,1.30
2013,10,29,03,29,1.30
2013,10,29,03,30,1.30
2013,10,29,03,31,1.30
2013,10,29,03,32,1.30
2013,10,29,03,33,1.30
2013,10,29,03,34,1.20
2013,10,29,03,35,1.20
2013,10,29,03,36,1.20
2013,10,29,03,37,1.20
2013,10,29,03,38,1.20
2013,10,29,03,39,1.20
2013,10,29,03,40,1.20
2013,10,29,03,41,1.20
2013,10,29,03,42,1.20
2013,10,29,03,43,1.10
2013,10,29,03,44,1.10
2013,10,29,03,45,1.10
2013,10,29,03,46,1.10
2013,10,29,03,47,1.10
2013,10,29,03,48,1.10
2013,10,29,03,49,1.10
2013,10,29,03,50,1.00
2013,10,29,03,51,1.00
2013,10,29,03,52,1.00
2013,10,29,03,53,1.00
2013,10,29,03,54,1.00
2013,10,29,03,55,1.00
2013,10,29,03,56,1.00
2013,10,29,03,57,1.00
2013,10,29,03,58,1.10
2013,10,29,03,59,1.00
2013,10,29,04,00,1.00
2013,10,29,04,01,1.00
2013,10,29,04,02,1.00
2013,10,29,04,03,1.00
2013,10,29,04,04,1.00
2013,10,29,04,05,1.00
2013,10,29,04,06,0.90
2013,10,29,04,07,0.90
2013,10,29,04,08,0.90
2013,10,29,04,09,0.90
2013,10,29,04,10,0.90
2013,10,29,04,11,0.90
2013,10,29,04,12,0.90
2013,10,29,04,13,0.80
2013,10,29,04,14,0.80
2013,10,29,04,15,0.70
2013,10,29,04,16,0.70
2013,10,29,04,17,0.70
2013,10,29,04,18,0.60
2013,10,29,04,19,0.60
2013,10,29,04,20,0.60
2013,10,29,04,21,0.60
2013,10,29,04,22,0.50
2013,10,29,04,23,0.50
2013,10,29,04,24,0.40
2013,10,29,04,25,0.40
2013,10,29,04,26,0.40
2013,10,29,04,27,0.40
2013,10,29,04,28,0.50
2013,10,29,04,29,0.50
2013,10,29,04,30,0.50
2013,10,29,04,31,0.50
2013,10,29,04,32,0.50
2013,10,29,04,33,0.50
2013,10,29,04,34,0.60
2013,10,29,04,35,0.60
2013,10,29,04,36,0.60
2013,10,29,04,37,0.60
2013,10,29,04,38,0.60
2013,10,29,04,39,0.60
2013,10,29,04,40,0.60
2013,10,29,04,41,0.60
2013,10,29,04,42,0.70
2013,10,29,04,43,0.70
2013,10,29,04,44,0.70
2013,10,29,04,45,0.70
2013,10,29,04,46,0.70
2013,10,29,04,47,0.70
2013,10,29,04,48,0.70
2013,10,29,04,49,0.70
2013,10,29,04,50,0.70
2013,10,29,04,51,0.70
2013,10,29,04,52,0.70
2013,10,29,04,53,0.70
2013,10,29,04,54,0.70
2013,10,29,04,55,0.70
2013,10,29,04,56,0.70
2013,10,29,04,57,0.60
2013,10,29,04,58,0.60
2013,10,29,04,59,0.60
2013,10,29,05,00,0.50
2013,10,29,05,01,0.50
2013,10,29,05,02,0.50
2013,10,29,05,03,0.40
2013,10,29,05,04,0.40
2013,10,29,05,05,0.40
2013,10,29,05,06,0.40
2013,10,29,05,07,0.40
2013,10,29,05,08,0.40
2013,10,29,05,09,0.40
2013,10,29,05,10,0.30
2013,10,29,05,11,0.30
2013,10,29,05,12,0.30
2013,10,29,05,13,0.30
2013,10,29,05,14,0.30
2013,10,29,05,15,0.30
2013,10,29,05,16,0.30
2013,10,29,05,17,0.30
2013,10,29,05,18,0.30
2013,10,29,05,19,0.40
2013,10,29,05,20,0.40
2013,10,29,05,21,0.40
2013,10,29,05,22,0.40
2013,10,29,05,23,0.40
2013,10,29,05,24,0.30
2013,10,29,05,25,0.30
2013,10,29,05,26,0.30
2013,10,29,05,27,0.30
2013,10,29,05,28,0.30
2013,10,29,05,29,0.30
2013,10,29,05,30,0.30
2013,10,29,05,31,0.30
2013,10,29,05,32,0.20
2013,10,29,05,33,0.20
2013,10,29,05,34,0.20
2013,10,29,05,35,0.20
2013,10,29,05,36,0.20
2013,10,29,05,37,0.20
2013,10,29,05,38,0.10
2013,10,29,05,39,0.10
2013,10,29,05,40,0.10
2013,10,29,05,41,0.10
2013,10,29,05,42,0.10
2013,10,29,05,43,0.00
2013,10,29,05,44,0.00
2013,10,29,05,45,0.00
2013,10,29,05,46,0.00
2013,10,29,05,47,0.00
2013,10,29,05,48,0.00
2013,10,29,05,49,0.00
2013,10,29,05,50,0.00
2013,10,29,05,51,0.00
2013,10,29,05,52,0.00
2013,10,29,05,53,-0.10
2013,10,29,05,54,-0.10
2013,10,29,05,55,-0.10
2013,10,29,05,56,0.00
2013,10,29,05,57,0.00
2013,10,29,05,58,0.00
2013,10,29,05,59,0.10
2013,10,29,06,00,0.10
2013,10,29,06,01,0.10
2013,10,29,06,02,0.10
2013,10,29,06,03,0.10
2013,10,29,06,04,0.10
2013,10,29,06,05,0.00
2013,10,29,06,06,0.00
2013,10,29,06,07,0.00
2013,10,29,06,08,-0.10
2013,10,29,06,09,-0.10
2013,10,29,06,10,-0.10
2013,10,29,06,11,-0.10
2013,10,29,06,12,-0.20
2013,10,29,06,13,-0.20
2013,10,29,06,14,-0.20
2013,10,29,06,15,-0.20
2013,10,29,06,16,-0.20
2013,10,29,06,17,-0.20
2013,10,29,06,18,-0.20
2013,10,29,06,19,-0.20
2013,10,29,06,20,-0.20
2013,10,29,06,21,-0.20
2013,10,29,06,22,-0.20
2013,10,29,06,23,-0.20
2013,10,29,06,24,-0.20
2013,10,29,06,25,-0.20
2013,10,29,06,26,-0.20
2013,10,29,06,27,-0.20
2013,10,29,06,28,-0.20
2013,10,29,06,29,-0.10
2013,10,29,06,30,-0.10
2013,10,29,06,31,-0.10
2013,10,29,06,32,-0.10
2013,10,29,06,33,-0.10
2013,10,29,06,34,-0.10
2013,10,29,06,35,-0.10
2013,10,29,06,36,-0.10
2013,10,29,06,37,-0.10
2013,10,29,06,38,-0.10
2013,10,29,06,39,-0.10
2013,10,29,06,40,-0.10
2013,10,29,06,41,-0.20
2013,10,29,06,42,-0.20
2013,10,29,06,43,-0.20
2013,10,29,06,44,-0.20
2013,10,29,06,45,-0.20
2013,10,29,06,46,-0.20
2013,10,29,06,47,-0.30
2013,10,29,06,48,-0.30
2013,10,29,06,49,-0.30
2013,10,29,06,50,-0.30
2013,10,29,06,51,-0.30
2013,10,29,06,52,-0.40
2013,10,29,06,53,-0.40
2013,10,29,06,54,-0.40
2013,10,29,06,55,-0.40
2013,10,29,06,56,-0.40
2013,10,29,06,57,-0.50
2013,10,29,06,58,-0.50
2013,10,29,06,59,-0.50
2013,10,29,07,00,-0.50
2013,10,29,07,01,-0.50
2013,10,29,07,02,-0.50
2013,10,29,07,03,-0.50
2013,10,29,07,04,-0.50
2013,10,29,07,05,-0.40
2013,10,29,07,06,-0.40
2013,10,29,07,07,-0.40
2013,10,29,07,08,-0.40
2013,10,29,07,09,-0.40
2013,10,29,07,10,-0.30
2013,10,29,07,11,-0.30
2013,10,29,07,12,-0.30
2013,10,29,07,13,-0.30
2013,10,29,07,14,-0.30
2013,10,29,07,15,-0.20
2013,10,29,07,16,-0.20
2013,10,29,07,17,-0.20
2013,10,29,07,18,-0.20
2013,10,29,07,19,-0.20
2013,10,29,07,20,-0.20
2013,10,29,07,21,-0.20
2013,10,29,07,22,-0.20
2013,10,29,07,23,-0.20
2013,10,29,07,24,-0.20
2013,10,29,07,25,-0.20
2013,10,29,07,26,-0.20
2013,10,29,07,27,-0.20
2013,10,29,07,28,-0.20
2013,10,29,07,29,-0.20
2013,10,29,07,30,-0.20
2013,10,29,07,31,-0.20
2013,10,29,07,32,-0.20
2013,10,29,07,33,-0.20
2013,10,29,07,34,-0.20
2013,10,29,07,35,-0.20
2013,10,29,07,36,-0.20
2013,10,29,07,37,-0.30
2013,10,29,07,38,-0.30
2013,10,29,07,39,-0.30
2013,10,29,07,40,-0.30
2013,10,29,07,41,-0.30
2013,10,29,07,42,-0.30
2013,10,29,07,43,-0.40
2013,10,29,07,44,-0.40
2013,10,29,07,45,-0.40
2013,10,29,07,46,-0.40
2013,10,29,07,47,-0.40
2013,10,29,07,48,-0.50
2013,10,29,07,49,-0.50
2013,10,29,07,50,-0.50
2013,10,29,07,51,-0.50
2013,10,29,07,52,-0.50
2013,10,29,07,53,-0.50
2013,10,29,07,54,-0.50
2013,10,29,07,55,-0.50
2013,10,29,07,56,-0.50
2013,10,29,07,57,-0.50
2013,10,29,07,58,-0.50
2013,10,29,07,59,-0.50
2013,10,29,08,00,-0.50
2013,10,29,08,01,-0.50
2013,10,29,08,02,-0.50
2013,10,29,08,03,-0.50
2013,10,29,08,04,-0.50
2013,10,29,08,05,-0.50
2013,10,29,08,06,-0.50
2013,10,29,08,07,-0.40
2013,10,29,08,08,-0.40
2013,10,29,08,09,-0.40
2013,10,29,08,10,-0.40
2013,10,29,08,11,-0.40
2013,10,29,08,12,-0.40
2013,10,29,08,13,-0.40
2013,10,29,08,14,-0.40
2013,10,29,08,15,-0.40
2013,10,29,08,16,-0.40
2013,10,29,08,17,-0.40
2013,10,29,08,18,-0.40
2013,10,29,08,19,-0.40
2013,10,29,08,20,-0.50
2013,10,29,08,21,-0.50
2013,10,29,08,22,-0.50
2013,10,29,08,23,-0.60
2013,10,29,08,24,-0.60
2013,10,29,08,25,-0.60
2013,10,29,08,26,-0.60
2013,10,29,08,27,-0.60
2013,10,29,08,28,-0.70
2013,10,29,08,29,-0.70
2013,10,29,08,30,-0.70
2013,10,29,08,31,-0.70
2013,10,29,08,32,-0.70
2013,10,29,08,33,-0.70
2013,10,29,08,34,-0.70
2013,10,29,08,35,-0.70
2013,10,29,08,36,-0.80
2013,10,29,08,37,-0.80
2013,10,29,08,38,-0.70
2013,10,29,08,39,-0.70
2013,10,29,08,40,-0.80
2013,10,29,08,41,-0.70
2013,10,29,08,42,-0.80
2013,10,29,08,43,-0.70
2013,10,29,08,44,-0.70
2013,10,29,08,45,-0.70
2013,10,29,08,46,-0.70
2013,10,29,08,47,-0.70
2013,10,29,08,48,-0.70
2013,10,29,08,49,-0.70
2013,10,29,08,50,-0.70
2013,10,29,08,51,-0.70
2013,10,29,08,52,-0.70
2013,10,29,08,53,-0.70
2013,10,29,08,54,-0.70
2013,10,29,08,55,-0.70
2013,10,29,08,56,-0.70
2013,10,29,08,57,-0.70
2013,10,29,08,58,-0.70
2013,10,29,08,59,-0.70
2013,10,29,09,00,-0.70
2013,10,29,09,01,-0.70
2013,10,29,09,02,-0.70
2013,10,29,09,03,-0.70
2013,10,29,09,04,-0.70
2013,10,29,09,05,-0.70
2013,10,29,09,06,-0.70
2013,10,29,09,07,-0.70
2013,10,29,09,08,-0.70
2013,10,29,09,09,-0.70
2013,10,29,09,10,-0.70
2013,10,29,09,11,-0.70
2013,10,29,09,12,-0.70
2013,10,29,09,13,-0.70
2013,10,29,09,14,-0.70
2013,10,29,09,15,-0.70
2013,10,29,09,16,-0.60
2013,10,29,09,17,-0.60
2013,10,29,09,18,-0.60
2013,10,29,09,19,-0.60
2013,10,29,09,20,-0.50
2013,10,29,09,21,-0.40
2013,10,29,09,22,-0.40
2013,10,29,09,23,-0.30
2013,10,29,09,24,-0.20
2013,10,29,09,25,-0.10
2013,10,29,09,26,0.00
2013,10,29,09,27,0.10
2013,10,29,09,28,0.10
2013,10,29,09,29,0.20
2013,10,29,09,30,0.30
2013,10,29,09,31,0.40
2013,10,29,09,32,0.50
2013,10,29,09,33,0.60
2013,10,29,09,34,0.70
2013,10,29,09,35,0.70
2013,10,29,09,36,0.70
2013,10,29,09,37,0.70
2013,10,29,09,38,1.00
2013,10,29,09,39,1.10
2013,10,29,09,40,1.20
2013,10,29,09,41,1.20
2013,10,29,09,42,1.30
2013,10,29,09,43,1.30
2013,10,29,09,44,1.40
2013,10,29,09,45,1.40
2013,10,29,09,46,1.50
2013,10,29,09,47,1.60
2013,10,29,09,48,1.60
2013,10,29,09,49,1.70
2013,10,29,09,50,1.70
2013,10,29,09,51,1.80
2013,10,29,09,52,1.80
2013,10,29,09,53,1.90
2013,10,29,09,54,1.90
2013,10,29,09,55,2.00
2013,10,29,09,56,2.00
2013,10,29,09,57,2.10
2013,10,29,09,58,2.20
2013,10,29,09,59,2.20
2013,10,29,10,00,2.30
2013,10,29,10,01,2.30
2013,10,29,10,02,2.30
2013,10,29,10,03,2.30
2013,10,29,10,04,2.30
2013,10,29,10,05,2.30
2013,10,29,10,06,2.30
2013,10,29,10,07,2.40
2013,10,29,10,08,2.40
2013,10,29,10,09,2.50
2013,10,29,10,10,2.60
2013,10,29,10,11,2.60
2013,10,29,10,12,2.70
2013,10,29,10,13,2.80
2013,10,29,10,14,2.80
2013,10,29,10,15,2.90
2013,10,29,10,16,2.90
2013,10,29,10,17,3.00
2013,10,29,10,18,3.00
2013,10,29,10,19,3.10
2013,10,29,10,20,3.10
2013,10,29,10,21,3.10
2013,10,29,10,22,3.20
2013,10,29,10,23,3.20
2013,10,29,10,24,3.30
2013,10,29,10,25,3.40
2013,10,29,10,26,3.50
2013,10,29,10,27,3.60
2013,10,29,10,28,3.60
2013,10,29,10,29,3.70
2013,10,29,10,30,3.80
2013,10,29,10,31,3.80
2013,10,29,10,32,3.90
2013,10,29,10,33,3.90
2013,10,29,10,34,4.00
2013,10,29,10,35,4.00
2013,10,29,10,36,4.00
2013,10,29,10,37,4.10
2013,10,29,10,38,4.10
2013,10,29,10,39,4.10
2013,10,29,10,40,4.10
2013,10,29,10,41,4.10
2013,10,29,10,42,4.10
2013,10,29,10,43,4.10
2013,10,29,10,44,4.10
2013,10,29,10,45,4.20
2013,10,29,10,46,4.20
2013,10,29,10,47,4.20
2013,10,29,10,48,4.20
2013,10,29,10,49,4.20
2013,10,29,10,50,4.30
2013,10,29,10,51,4.30
2013,10,29,10,52,4.30
2013,10,29,10,53,4.30
2013,10,29,10,54,4.30
2013,10,29,10,55,4.40
2013,10,29,10,56,4.40
2013,10,29,10,57,4.40
2013,10,29,10,58,4.40
2013,10,29,10,59,4.40
2013,10,29,11,00,4.40
2013,10,29,11,01,4.40
2013,10,29,11,02,4.50
2013,10,29,11,03,4.50
2013,10,29,11,04,4.60
2013,10,29,11,05,4.60
2013,10,29,11,06,4.70
2013,10,29,11,07,4.70
2013,10,29,11,08,4.80
2013,10,29,11,09,4.90
2013,10,29,11,10,4.90
2013,10,29,11,11,5.00
2013,10,29,11,12,5.10
2013,10,29,11,13,5.20
2013,10,29,11,14,5.20
2013,10,29,11,15,5.30
2013,10,29,11,16,5.40
2013,10,29,11,17,5.50
2013,10,29,11,18,5.50
2013,10,29,11,19,5.60
2013,10,29,11,20,5.60
2013,10,29,11,21,5.60
2013,10,29,11,22,5.60
2013,10,29,11,23,5.60
2013,10,29,11,24,5.60
2013,10,29,11,25,5.60
2013,10,29,11,26,5.60
2013,10,29,11,27,5.60
2013,10,29,11,28,5.60
2013,10,29,11,29,5.60
2013,10,29,11,30,5.60
2013,10,29,11,31,5.60
2013,10,29,11,32,5.60
2013,10,29,11,33,5.60
2013,10,29,11,34,5.60
2013,10,29,11,35,5.60
2013,10,29,11,36,5.70
2013,10,29,11,37,5.70
2013,10,29,11,38,5.70
2013,10,29,11,39,5.70
2013,10,29,11,40,5.70
2013,10,29,11,41,5.80
2013,10,29,11,42,5.80
2013,10,29,11,43,5.80
2013,10,29,11,44,5.80
2013,10,29,11,45,5.80
2013,10,29,11,46,5.80
2013,10,29,11,47,5.90
2013,10,29,11,48,5.90
2013,10,29,11,49,6.00
2013,10,29,11,50,6.00
2013,10,29,11,51,6.10
2013,10,29,11,52,6.10
2013,10,29,11,53,6.20
2013,10,29,11,54,6.20
2013,10,29,11,55,6.20
2013,10,29,11,56,6.20
2013,10,29,11,57,6.30
2013,10,29,11,58,6.30
2013,10,29,11,59,6.30
2013,10,29,12,00,6.40
2013,10,29,12,01,6.40
2013,10,29,12,02,6.50
2013,10,29,12,03,6.50
2013,10,29,12,04,6.60
2013,10,29,12,05,6.60
2013,10,29,12,06,6.60
2013,10,29,12,07,6.60
2013,10,29,12,08,6.60
2013,10,29,12,09,6.60
2013,10,29,12,10,6.70
2013,10,29,12,11,6.70
2013,10,29,12,12,6.70
2013,10,29,12,13,6.70
2013,10,29,12,14,6.80
2013,10,29,12,15,6.80
2013,10,29,12,16,6.80
2013,10,29,12,17,6.80
2013,10,29,12,18,6.90
2013,10,29,12,19,6.90
2013,10,29,12,20,7.00
2013,10,29,12,21,7.00
2013,10,29,12,22,7.10
2013,10,29,12,23,7.10
2013,10,29,12,24,7.10
2013,10,29,12,25,7.10
2013,10,29,12,26,7.10
2013,10,29,12,27,7.20
2013,10,29,12,28,7.20
2013,10,29,12,29,7.30
2013,10,29,12,30,7.30
2013,10,29,12,31,7.30
2013,10,29,12,32,7.30
2013,10,29,12,33,7.30
2013,10,29,12,34,7.30
2013,10,29,12,35,7.40
2013,10,29,12,36,7.50
2013,10,29,12,37,7.50
2013,10,29,12,38,7.60
2013,10,29,12,39,7.70
2013,10,29,12,40,7.80
2013,10,29,12,41,7.90
2013,10,29,12,42,8.00
2013,10,29,12,43,8.10
2013,10,29,12,44,8.10
2013,10,29,12,45,8.20
2013,10,29,12,46,8.20
2013,10,29,12,47,8.20
2013,10,29,12,48,8.20
2013,10,29,12,49,8.20
2013,10,29,12,50,8.30
2013,10,29,12,51,8.30
2013,10,29,12,52,8.30
2013,10,29,12,53,8.40
2013,10,29,12,54,8.40
2013,10,29,12,55,8.40
2013,10,29,12,56,8.50
2013,10,29,12,57,8.50
2013,10,29,12,58,8.50
2013,10,29,12,59,8.50
2013,10,29,13,00,8.60
2013,10,29,13,01,8.60
2013,10,29,13,02,8.60
2013,10,29,13,03,8.60
2013,10,29,13,04,8.70
2013,10,29,13,05,8.70
2013,10,29,13,06,8.80
2013,10,29,13,07,8.80
2013,10,29,13,08,8.80
2013,10,29,13,09,8.80
2013,10,29,13,10,8.80
2013,10,29,13,11,8.80
2013,10,29,13,12,8.90
2013,10,29,13,13,8.90
2013,10,29,13,14,9.00
2013,10,29,13,15,9.00
2013,10,29,13,16,9.00
2013,10,29,13,17,9.10
2013,10,29,13,18,9.10
2013,10,29,13,19,9.10
2013,10,29,13,20,9.20
2013,10,29,13,21,9.20
2013,10,29,13,22,9.20
2013,10,29,13,23,9.30
2013,10,29,13,24,9.30
2013,10,29,13,25,9.30
2013,10,29,13,26,9.30
2013,10,29,13,27,9.40
2013,10,29,13,28,9.40
2013,10,29,13,29,9.50
2013,10,29,13,30,9.50
2013,10,29,13,31,9.60
2013,10,29,13,32,9.60
2013,10,29,13,33,9.70
2013,10,29,13,34,9.70
2013,10,29,13,35,9.70
2013,10,29,13,36,9.80
2013,10,29,13,37,9.80
2013,10,29,13,38,9.90
2013,10,29,13,39,9.90
2013,10,29,13,40,9.90
2013,10,29,13,41,9.90
2013,10,29,13,42,10.00
2013,10,29,13,43,10.00
2013,10,29,13,44,10.10
2013,10,29,13,45,10.10
2013,10,29,13,46,10.10
2013,10,29,13,47,10.10
2013,10,29,13,48,10.20
2013,10,29,13,49,10.20
2013,10,29,13,50,10.30
2013,10,29,13,51,10.30
2013,10,29,13,52,10.40
2013,10,29,13,53,10.40
2013,10,29,13,54,10.40
2013,10,29,13,55,10.50
2013,10,29,13,56,10.50
2013,10,29,13,57,10.50
2013,10,29,13,58,10.50
2013,10,29,13,59,10.50
2013,10,29,14,00,10.60
2013,10,29,14,01,10.60
2013,10,29,14,02,10.70
2013,10,29,14,03,10.70
2013,10,29,14,04,10.80
2013,10,29,14,05,10.80
2013,10,29,14,06,10.90
2013,10,29,14,07,11.00
2013,10,29,14,08,11.00
2013,10,29,14,09,11.00
2013,10,29,14,10,11.00
2013,10,29,14,11,11.00
2013,10,29,14,12,11.00
2013,10,29,14,13,11.00
2013,10,29,14,14,11.10
2013,10,29,14,15,11.10
2013,10,29,14,16,11.10
2013,10,29,14,17,11.20
2013,10,29,14,18,11.20
2013,10,29,14,19,11.30
2013,10,29,14,20,11.30
2013,10,29,14,21,11.30
2013,10,29,14,22,11.30
2013,10,29,14,23,11.40
2013,10,29,14,24,11.40
2013,10,29,14,25,11.40
2013,10,29,14,26,11.50
2013,10,29,14,27,11.50
2013,10,29,14,28,11.50
2013,10,29,14,29,11.50
2013,10,29,14,30,11.50
2013,10,29,14,31,11.50
2013,10,29,14,32,11.50
2013,10,29,14,33,11.50
2013,10,29,14,34,11.50
2013,10,29,14,35,11.50
2013,10,29,14,36,11.50
2013,10,29,14,37,11.60
2013,10,29,14,38,11.60
2013,10,29,14,39,11.60
2013,10,29,14,40,11.70
2013,10,29,14,41,11.70
2013,10,29,14,42,11.80
2013,10,29,14,43,11.80
2013,10,29,14,44,11.90
2013,10,29,14,45,11.90
2013,10,29,14,46,11.90
2013,10,29,14,47,12.00
2013,10,29,14,48,12.00
2013,10,29,14,49,12.00
2013,10,29,14,50,12.00
2013,10,29,14,51,12.10
2013,10,29,14,52,12.10
2013,10,29,14,53,12.10
2013,10,29,14,54,12.20
2013,10,29,14,55,12.20
2013,10,29,14,56,12.20
2013,10,29,14,57,12.30
2013,10,29,14,58,12.30
2013,10,29,14,59,12.40
2013,10,29,15,00,12.50
2013,10,29,15,01,12.50
2013,10,29,15,02,12.60
2013,10,29,15,03,12.60
2013,10,29,15,04,12.70
2013,10,29,15,05,12.70
2013,10,29,15,06,12.70
2013,10,29,15,07,12.80
2013,10,29,15,08,12.80
2013,10,29,15,09,12.80
2013,10,29,15,10,12.80
2013,10,29,15,11,12.80
2013,10,29,15,12,12.80
2013,10,29,15,13,12.80
2013,10,29,15,14,12.80
2013,10,29,15,15,12.80
2013,10,29,15,16,12.80
2013,10,29,15,17,12.80
2013,10,29,15,18,12.80
2013,10,29,15,19,12.80
2013,10,29,15,20,12.80
2013,10,29,15,21,12.80
2013,10,29,15,22,12.80
2013,10,29,15,23,12.90
2013,10,29,15,24,13.00
2013,10,29,15,25,13.00
2013,10,29,15,26,13.10
2013,10,29,15,27,13.10
2013,10,29,15,28,13.10
2013,10,29,15,29,13.20
2013,10,29,15,30,13.20
2013,10,29,15,31,13.20
2013,10,29,15,32,13.30
2013,10,29,15,33,13.30
2013,10,29,15,34,13.30
2013,10,29,15,35,13.30
2013,10,29,15,36,13.30
2013,10,29,15,37,13.30
2013,10,29,15,38,13.40
2013,10,29,15,39,13.40
2013,10,29,15,40,13.40
2013,10,29,15,41,13.40
2013,10,29,15,42,13.40
2013,10,29,15,43,13.30
2013,10,29,15,44,13.30
2013,10,29,15,45,13.30
2013,10,29,15,46,13.30
2013,10,29,15,47,13.20
2013,10,29,15,48,13.20
2013,10,29,15,49,13.20
2013,10,29,15,50,13.10
2013,10,29,15,51,13.10
2013,10,29,15,52,13.10
2013,10,29,15,53,13.10
2013,10,29,15,54,13.10
2013,10,29,15,55,13.10
2013,10,29,15,56,13.10
2013,10,29,15,57,13.10
2013,10,29,15,58,13.10
2013,10,29,15,59,13.10
2013,10,29,16,00,13.10
2013,10,29,16,01,13.10
2013,10,29,16,02,13.10
2013,10,29,16,03,13.20
2013,10,29,16,04,13.30
2013,10,29,16,05,13.40
2013,10,29,16,06,13.40
2013,10,29,16,07,13.40
2013,10,29,16,08,13.40
2013,10,29,16,09,13.40
2013,10,29,16,10,13.30
2013,10,29,16,11,13.30
2013,10,29,16,12,13.30
2013,10,29,16,13,13.30
2013,10,29,16,14,13.20
2013,10,29,16,15,13.20
2013,10,29,16,16,13.20
2013,10,29,16,17,13.20
2013,10,29,16,18,13.20
2013,10,29,16,19,13.20
2013,10,29,16,20,13.10
2013,10,29,16,21,13.10
2013,10,29,16,22,13.10
2013,10,29,16,23,13.00
2013,10,29,16,24,13.00
2013,10,29,16,25,12.90
2013,10,29,16,26,12.90
2013,10,29,16,27,12.80
2013,10,29,16,28,12.80
2013,10,29,16,29,12.70
2013,10,29,16,30,12.60
2013,10,29,16,31,12.50
2013,10,29,16,32,12.40
2013,10,29,16,33,12.30
2013,10,29,16,34,12.20
2013,10,29,16,35,12.10
2013,10,29,16,36,12.10
2013,10,29,16,37,12.00
2013,10,29,16,38,12.00
2013,10,29,16,39,11.90
2013,10,29,16,40,11.90
2013,10,29,16,41,11.80
2013,10,29,16,42,11.80
2013,10,29,16,43,11.80
2013,10,29,16,44,11.80
2013,10,29,16,45,11.80
2013,10,29,16,46,11.70
2013,10,29,16,47,11.70
2013,10,29,16,48,11.60
2013,10,29,16,49,11.60
2013,10,29,16,50,11.50
2013,10,29,16,51,11.50
2013,10,29,16,52,11.40
2013,10,29,16,53,11.30
2013,10,29,16,54,11.20
2013,10,29,16,55,11.20
2013,10,29,16,56,11.20
2013,10,29,16,57,11.20
2013,10,29,16,58,11.10
2013,10,29,16,59,11.10
2013,10,29,17,00,11.10
2013,10,29,17,01,11.10
2013,10,29,17,02,11.10
2013,10,29,17,03,11.00
2013,10,29,17,04,11.00
2013,10,29,17,05,10.90
2013,10,29,17,06,10.90
2013,10,29,17,07,10.80
2013,10,29,17,08,10.80
2013,10,29,17,09,10.80
2013,10,29,17,10,10.70
2013,10,29,17,11,10.70
2013,10,29,17,12,10.70
2013,10,29,17,13,10.60
2013,10,29,17,14,10.60
2013,10,29,17,15,10.60
2013,10,29,17,16,10.60
2013,10,29,17,17,10.60
2013,10,29,17,18,10.60
2013,10,29,17,19,10.60
2013,10,29,17,20,10.40
2013,10,29,17,21,10.40
2013,10,29,17,22,10.40
2013,10,29,17,23,10.40
2013,10,29,17,24,10.40
2013,10,29,17,25,10.40
2013,10,29,17,26,10.30
2013,10,29,17,27,10.30
2013,10,29,17,28,10.30
2013,10,29,17,29,10.30
2013,10,29,17,30,10.20
2013,10,29,17,31,10.20
2013,10,29,17,32,10.20
2013,10,29,17,33,10.20
2013,10,29,17,34,10.10
2013,10,29,17,35,10.10
2013,10,29,17,36,10.10
2013,10,29,17,37,10.10
2013,10,29,17,38,10.00
2013,10,29,17,39,10.00
2013,10,29,17,40,9.90
2013,10,29,17,41,9.90
2013,10,29,17,42,9.90
2013,10,29,17,43,9.90
2013,10,29,17,44,9.80
2013,10,29,17,45,9.80
2013,10,29,17,46,9.70
2013,10,29,17,47,9.70
2013,10,29,17,48,9.60
2013,10,29,17,49,9.60